Location: Goettingen
(51.5300°N, 9.9433°E)
Time: 14:25:46
(UTC+02:00)

ISS - Pass Details

Date: 22 October 2021
Orbit: 417 x 423 km, 51.6° (Epoch: 22 October)

Event Time Altitude Azimuth Distance (km) Brightness Sun altitude
Rises 07:00:15 0° 207° (SSW) 2,357 -0.2 -9.4°
Reaches altitude 10° 07:02:47 10° 188° (S) 1,496 -1.0 -9.0°
Maximum altitude 07:05:09 18° 143° (SE) 1,103 -1.0 -8.6°
Drops below altitude 10° 07:07:32 10° 98° (E) 1,501 0.8 -8.3°
Sets 07:10:04 0° 79° (ENE) 2,367 1.7 -7.9°
